Location: Choisy
(48.7685°N, 2.4187°E)
Time: 02:09:13
(UTC+00:00)

NOSS 2-3 (D) - Pass Details

Date: 24 October 2021
Orbit: 538 x 1672 km, 63.3° (Epoch: 25 November)

Event Time Altitude Azimuth Distance (km) Brightness Sun altitude
Rises 18:09:03 0° 213° (SSW) 2,686 7.3 -14.7°
Reaches altitude 10° 18:11:07 10° 210° (SSW) 1,825 6.4 -15.0°
Maximum altitude 18:15:05 69° 127° (SE) 643 3.4 -15.7°
Enters shadow 18:18:18 19° 47° (NE) 1,563 5.2 -16.2°
